Hourly Weather Kiwity

Today, 25 July, Sunday

Time Temperature Precipitation Wind Pressure Humidity
00:00 +22°C° 0 mm 4 mps 753 mmHg 54%
01:00 +21°C° 0 mm 4 mps 753 mmHg 56%
02:00 +21°C° 0 mm 4 mps 753 mmHg 60%
03:00 +20°C° 0 mm 4 mps 752 mmHg 63%
04:00 +19°C° 0 mm 4 mps 752 mmHg 67%
05:00 +20°C° 0 mm 4 mps 752 mmHg 66%
06:00 +21°C° 0 mm 4 mps 752 mmHg 65%
07:00 +22°C° 0 mm 5 mps 752 mmHg 64%
08:00 +25°C° 0 mm 5 mps 752 mmHg 59%
09:00 +26°C° 0 mm 5 mps 752 mmHg 54%
10:00 +28°C° 0 mm 5 mps 752 mmHg 48%
11:00 +29°C° 0 mm 5 mps 752 mmHg 47%
12:00 +30°C° 0 mm 5 mps 752 mmHg 45%
13:00 +30°C° 0 mm 5 mps 752 mmHg 43%
14:00 +30°C° 0 mm 5 mps 751 mmHg 44%
15:00 +30°C° 0 mm 5 mps 751 mmHg 44%
16:00 +30°C° 0 mm 5 mps 751 mmHg 45%
17:00 +28°C° 0.3 mm 4 mps 751 mmHg 53%
18:00 +26°C° 0.3 mm 4 mps 751 mmHg 62%
19:00 +25°C° 0.3 mm 4 mps 751 mmHg 70%
20:00 +22°C° 0.6 mm 3 mps 752 mmHg 73%
21:00 +21°C° 0.6 mm 3 mps 752 mmHg 76%
22:00 +20°C° 0.6 mm 3 mps 752 mmHg 79%
23:00 +20°C° 0.1 mm 3 mps 752 mmHg 79%

Tomorrow, 26 July, Monday

Time Temperature Precipitation Wind Pressure Humidity
00:00 +20°C° 0.1 mm 2 mps 752 mmHg 79%
01:00 +19°C° 0.1 mm 2 mps 752 mmHg 80%
02:00 +19°C° 0 mm 2 mps 752 mmHg 80%
03:00 +19°C° 0 mm 2 mps 752 mmHg 81%
04:00 +18°C° 0 mm 2 mps 752 mmHg 82%
05:00 +19°C° 0 mm 2 mps 752 mmHg 78%
06:00 +20°C° 0 mm 2 mps 753 mmHg 75%
07:00 +23°C° 0 mm 2 mps 753 mmHg 71%
08:00 +24°C° 0 mm 2 mps 753 mmHg 66%
09:00 +26°C° 0 mm 2 mps 753 mmHg 60%
10:00 +27°C° 0 mm 2 mps 753 mmHg 54%
11:00 +28°C° 0 mm 1 mps 753 mmHg 52%
12:00 +29°C° 0 mm 1 mps 753 mmHg 49%
13:00 +30°C° 0 mm 1 mps 752 mmHg 47%
14:00 +30°C° 0 mm 1 mps 752 mmHg 47%
15:00 +30°C° 0 mm 1 mps 752 mmHg 47%
16:00 +30°C° 0 mm 1 mps 752 mmHg 48%
17:00 +29°C° 0 mm 1 mps 752 mmHg 52%
18:00 +28°C° 0 mm 1 mps 752 mmHg 57%
19:00 +27°C° 0 mm 1 mps 752 mmHg 62%
20:00 +26°C° 0.2 mm 1 mps 752 mmHg 66%
21:00 +25°C° 0.2 mm 2 mps 752 mmHg 69%
22:00 +23°C° 0.2 mm 2 mps 752 mmHg 73%
23:00 +22°C° 0.8 mm 3 mps 752 mmHg 79%

Day after tomorrow, 27 July, Tuesday

Time Temperature Precipitation Wind Pressure Humidity
00:00 +21°C° 0.8 mm 3 mps 753 mmHg 85%
01:00 +20°C° 0.8 mm 4 mps 753 mmHg 90%
02:00 +20°C° 0.3 mm 3 mps 753 mmHg 90%
03:00 +20°C° 0.3 mm 3 mps 753 mmHg 90%
04:00 +20°C° 0.3 mm 2 mps 753 mmHg 90%
05:00 +20°C° 0 mm 2 mps 753 mmHg 89%
06:00 +20°C° 0 mm 2 mps 753 mmHg 87%
07:00 +21°C° 0 mm 2 mps 753 mmHg 85%
08:00 +22°C° 0 mm 3 mps 753 mmHg 78%
09:00 +24°C° 0 mm 3 mps 753 mmHg 71%
10:00 +25°C° 0 mm 3 mps 754 mmHg 65%
11:00 +27°C° 0 mm 3 mps 753 mmHg 58%
12:00 +28°C° 0 mm 4 mps 753 mmHg 52%
13:00 +29°C° 0 mm 4 mps 753 mmHg 45%
14:00 +29°C° 0 mm 4 mps 753 mmHg 45%
15:00 +29°C° 0 mm 4 mps 753 mmHg 44%
16:00 +29°C° 0 mm 4 mps 753 mmHg 44%
17:00 +28°C° 0 mm 4 mps 753 mmHg 51%
18:00 +26°C° 0 mm 3 mps 753 mmHg 58%
19:00 +24°C° 0 mm 2 mps 753 mmHg 65%
20:00 +23°C° 0 mm 2 mps 753 mmHg 68%
21:00 +22°C° 0 mm 1 mps 753 mmHg 71%
22:00 +21°C° 0 mm 1 mps 754 mmHg 74%
23:00 +21°C° 0.1 mm 1 mps 754 mmHg 75%

28 July, Wednesday

Time Temperature Precipitation Wind Pressure Humidity
00:00 +21°C° 0.1 mm 1 mps 753 mmHg 77%
01:00 +19°C° 0.1 mm 2 mps 753 mmHg 78%
02:00 +19°C° 0 mm 2 mps 753 mmHg 79%
03:00 +19°C° 0 mm 2 mps 753 mmHg 81%
04:00 +19°C° 0 mm 2 mps 753 mmHg 82%
05:00 +20°C° 0 mm 3 mps 753 mmHg 79%
06:00 +20°C° 0 mm 3 mps 753 mmHg 76%
07:00 +21°C° 0 mm 4 mps 753 mmHg 73%
08:00 +23°C° 0 mm 4 mps 753 mmHg 65%
09:00 +25°C° 0 mm 5 mps 753 mmHg 58%
10:00 +26°C° 0 mm 5 mps 753 mmHg 50%
11:00 +26°C° 0 mm 5 mps 753 mmHg 50%
12:00 +26°C° 0 mm 5 mps 754 mmHg 49%
13:00 +26°C° 0 mm 5 mps 754 mmHg 49%
14:00 +25°C° 0 mm 4 mps 754 mmHg 52%
15:00 +25°C° 0 mm 4 mps 754 mmHg 54%
16:00 +23°C° 0 mm 4 mps 754 mmHg 57%
17:00 +24°C° 0 mm 3 mps 754 mmHg 62%
18:00 +22°C° 0 mm 3 mps 754 mmHg 66%
19:00 +21°C° 0 mm 2 mps 754 mmHg 70%
20:00 +20°C° 0 mm 2 mps 754 mmHg 73%
21:00 +19°C° 0 mm 2 mps 754 mmHg 76%
22:00 +18°C° 0 mm 2 mps 754 mmHg 79%
23:00 +18°C° 0 mm 2 mps 755 mmHg 81%

29 July, Thursday

Time Temperature Precipitation Wind Pressure Humidity
00:00 +17°C° 0 mm 2 mps 755 mmHg 83%
01:00 +18°C° 0 mm 1 mps 755 mmHg 85%
02:00 +18°C° 0 mm 1 mps 755 mmHg 86%
03:00 +16°C° 0 mm 1 mps 755 mmHg 87%
04:00 +16°C° 0 mm 1 mps 755 mmHg 88%
05:00 +17°C° 0 mm 2 mps 755 mmHg 83%
06:00 +19°C° 0 mm 2 mps 755 mmHg 78%
07:00 +20°C° 0 mm 2 mps 755 mmHg 73%
08:00 +22°C° 0 mm 3 mps 755 mmHg 68%
09:00 +24°C° 0 mm 3 mps 755 mmHg 62%
10:00 +26°C° 0 mm 4 mps 755 mmHg 56%
11:00 +26°C° 0 mm 4 mps 754 mmHg 54%
12:00 +27°C° 0 mm 4 mps 754 mmHg 52%
13:00 +27°C° 0 mm 4 mps 754 mmHg 51%
14:00 +27°C° 0 mm 3 mps 753 mmHg 52%
15:00 +27°C° 0 mm 2 mps 753 mmHg 52%
16:00 +27°C° 0 mm 1 mps 753 mmHg 53%
17:00 +26°C° 0 mm 1 mps 753 mmHg 57%
18:00 +25°C° 0 mm 1 mps 753 mmHg 60%
19:00 +24°C° 0 mm 1 mps 753 mmHg 63%
20:00 +24°C° 0 mm 1 mps 752 mmHg 63%
21:00 +23°C° 0 mm 1 mps 752 mmHg 63%
22:00 +22°C° 0 mm 1 mps 752 mmHg 63%
23:00 +21°C° 0 mm 2 mps 752 mmHg 65%

30 July, Friday

Time Temperature Precipitation Wind Pressure Humidity
00:00 +21°C° 0 mm 2 mps 751 mmHg 67%
01:00 +20°C° 0 mm 2 mps 751 mmHg 69%
02:00 +20°C° 0 mm 2 mps 751 mmHg 72%
03:00 +19°C° 0 mm 2 mps 751 mmHg 74%
04:00 +19°C° 0 mm 2 mps 750 mmHg 77%
05:00 +20°C° 0 mm 2 mps 750 mmHg 76%
06:00 +21°C° 0 mm 2 mps 750 mmHg 75%
07:00 +21°C° 0 mm 2 mps 750 mmHg 75%
08:00 +22°C° 0.2 mm 3 mps 750 mmHg 72%
09:00 +24°C° 0.2 mm 3 mps 750 mmHg 69%
10:00 +23°C° 0.2 mm 4 mps 750 mmHg 66%
11:00 +25°C° 0.1 mm 4 mps 750 mmHg 64%
12:00 +25°C° 0.1 mm 4 mps 750 mmHg 61%
13:00 +25°C° 0.1 mm 4 mps 750 mmHg 58%
14:00 +25°C° 0 mm 4 mps 750 mmHg 57%
15:00 +25°C° 0 mm 4 mps 750 mmHg 56%
16:00 +25°C° 0 mm 5 mps 750 mmHg 56%
17:00 +23°C° 0 mm 4 mps 750 mmHg 58%
18:00 +22°C° 0 mm 3 mps 750 mmHg 61%
19:00 +21°C° 0 mm 2 mps 750 mmHg 63%
20:00 +21°C° 0 mm 2 mps 750 mmHg 65%
21:00 +20°C° 0 mm 2 mps 751 mmHg 66%
22:00 +19°C° 0 mm 2 mps 751 mmHg 68%
23:00 +18°C° 0 mm 2 mps 751 mmHg 68%
Show more